STARLINK-3234 (50815 NORAD) Tracking and Keplerian Element Data
This shows tracking and keplerian element data for the satellite.
Feedback or suggestion? Click here.
Element | Value |
Catalog | 50815 |
Name | STARLINK-3234 |
Epoch Orbit | 2202 |
Epoch Day | 140.91667824 |
Epoch Year | 2022 |
RAAN | 283.549 |
Inclination | 53.2152 |
Eccentricity | 0.000203 |
Argument of Perigee | 38.0615 |
Mean Anonmoly | 260.0415 |
Mean Motion | 15.0884505 |
Decay Rate | -7.77E-06 |
L1 | 1 50815U 22001N 22140.91667824 -.00000777 00000+0 -30677-4 0 9995 |
L2 | 2 50815 53.2152 283.5490 0002030 38.0615 260.0415 15.08845050 22028 |
Live tracking and technical data element details for STARLINK-3234 (NORAD 50815). STARLINK-3234 can be tracked NOW for your location showing map with azimuth and elevation plus other details from your city location.
Track the satellite on the map from your city or location and see movement details for azimuth, elevation, latitude, longitude, range, height, and movement on the map or in text.
IsCatalogInMostPopularTable: catalog: 50815, numindb: 19
Update: records affected: 1
GetName: 50815 STARLINK-3234
Hit Count: updated at: Sun, 22 May 2022 04:07:13 GMT